Location: Domachevo
(51.7500°N, 23.6000°E)
Time: 00:58:19
(UTC+03:00)

Genesis I - Visible Passes

Search period start: 25 April 2019 00:00
Search period end: 05 May 2019 00:00
Orbit: 477 x 549 km, 64.5° (Epoch: 23 April)

Date Brightness Start Highest point End Pass type
(mag) Time Alt. Az. Time Alt. Az. Time Alt. Az.
25 Apr 3.8 04:42:48 15° SSW 04:45:59 53° SE 04:50:00 10° NE visible
26 Apr 3.8 04:26:39 20° SSW 04:29:18 54° SE 04:33:19 10° NE visible
27 Apr 3.8 04:10:27 25° SSW 04:12:37 54° SE 04:16:38 10° NE visible
28 Apr 3.7 03:54:12 30° S 03:55:55 54° SE 03:59:56 10° NE visible
29 Apr 3.7 03:37:54 36° S 03:39:13 54° SE 03:43:15 10° NE visible
29 Apr 4.6 05:13:23 10° W 05:17:05 31° NNW 05:20:48 10° NNE visible
30 Apr 3.6 03:21:33 42° S 03:22:32 54° SE 03:26:34 10° NE visible
30 Apr 4.6 04:56:42 10° W 05:00:23 31° NNW 05:04:06 10° NNE visible
01 May 3.6 03:05:10 47° SSE 03:05:50 54° SE 03:09:52 10° NE visible
01 May 4.7 04:40:04 10° W 04:43:42 31° NNW 04:47:24 10° NNE visible
02 May 3.5 02:48:44 52° SSE 02:49:09 54° SE 02:53:10 10° NE visible
02 May 4.7 04:23:38 12° W 04:27:00 31° NNW 04:30:43 10° NNE visible
03 May 3.5 02:32:15 54° SE 02:32:27 54° SE 02:36:29 10° NE visible
03 May 4.7 04:07:09 13° W 04:10:18 31° NNW 04:14:01 10° NNE visible
04 May 3.5 02:15:44 55° SE 02:15:44 55° SE 02:19:46 10° NE visible
04 May 4.8 03:50:38 14° W 03:53:37 31° NNW 03:57:18 10° NNE visible
